Reading, PA

12:24 PM EST on December 08, 2016 (GMT -0500)
Reading Regional-Spaatz

Weather History for KRDG - May, 2013

Change the Weather History Date:

Friday, May 24, 2013

  Actual Average Record
Temperature  
Mean Temperature 56 °F 64 °F  
Max Temperature 64 °F 75 °F 92 °F (1975)
Min Temperature 47 °F 53 °F 38 °F (1963)
Degree Days  
Heating Degree Days 9 4  
Month to date heating degree days 115 149  
Since 1 July heating degree days 4960 5347  
Cooling Degree Days 0 2  
Month to date cooling degree days 45 33  
Year to date cooling degree days 60 42  
Growing Degree Days 5 (Base 50)    
Moisture  
Dew Point 49 °F    
Average Humidity 74    
Maximum Humidity 93    
Minimum Humidity 54    
Precipitation  
Precipitation 0.03 in 0.18 in 1.96 in (1897)
Month to date precipitation 3.16 3.07  
Year to date precipitation 12.74 15.85  
Sea Level Pressure  
Sea Level Pressure 29.88 in    
Wind  
Wind Speed 12 mph (NW)    
Max Wind Speed 25 mph    
Max Gust Speed 35 mph    
Visibility 10 miles    
Events Rain , Thunderstorm    
T = Trace of Precipitation, MM = Missing Value Source: NWS Daily Summary

Daily Weather History Graph

Daily Weather History Graph

Search for Another Location

Airport or City:

Trip Planner

Search our weather history database for the weather conditions in past years. The results will help you decide how hot, cold, wet, or windy it might be!

Date:

Astronomy

May. 24, 2013 Rise Set
Actual Time 5:40 AM EDT 8:21 PM EDT
Civil Twilight 5:08 AM EDT 8:53 PM EDT
Nautical Twilight 4:28 AM EDT 9:33 PM EDT
Astronomical Twilight 3:43 AM EDT 10:18 PM EDT
Moon 8:01 PM EDT (5/24) 5:10 AM EDT (5/24)
Length of Visible Light 15h 45m
Length of Day
14h 41m
Full, 100% of the Moon is Illuminated
May 24
Full
May 25
Full
May 31
Last Quarter
Jun 8
New
Jun 16
First Quarter

Hourly Weather History & Observations

Time (EDT) Temp. Dew Point Humidity Pressure Visibility Wind Dir Wind Speed Gust Speed Precip Events Conditions
12:54 AM 63.0 °F 61.0 °F 93% 29.76 in 10.0 mi Calm Calm - N/A Thunderstorm Thunderstorm
1:54 AM 63.0 °F 61.0 °F 93% 29.75 in 6.0 mi Calm Calm - N/A Thunderstorm Partly Cloudy
2:10 AM 62.6 °F 60.8 °F 94% 29.72 in 9.0 mi Calm Calm - N/A Thunderstorm Thunderstorm
2:42 AM 62.6 °F 60.8 °F 94% 29.71 in 10.0 mi Calm Calm - N/A Thunderstorm Thunderstorm
2:54 AM 63.0 °F 61.0 °F 93% 29.73 in 10.0 mi Calm Calm - N/A Thunderstorm Thunderstorm
3:54 AM 63.0 °F 61.0 °F 93% 29.73 in 9.0 mi Calm Calm - N/A Thunderstorm Thunderstorm
4:16 AM 62.6 °F 60.8 °F 94% 29.72 in 10.0 mi Calm Calm - N/A Thunderstorm Thunderstorm
4:54 AM 63.0 °F 61.0 °F 93% 29.73 in 6.0 mi Calm Calm - 0.00 in Thunderstorm Overcast
5:11 AM 62.6 °F 60.8 °F 94% 29.72 in 5.0 mi Calm Calm - N/A Thunderstorm Overcast
5:54 AM 63.0 °F 61.0 °F 93% 29.74 in 10.0 mi Calm Calm - N/A Thunderstorm Thunderstorm
6:05 AM 62.6 °F 60.8 °F 94% 29.74 in 10.0 mi West 3.5 mph - N/A   Overcast
6:54 AM 63.0 °F 61.0 °F 93% 29.76 in 10.0 mi West 4.6 mph - N/A   Overcast
7:35 AM 64.4 °F 60.8 °F 88% 29.76 in 10.0 mi West 10.4 mph 16.1 mph N/A   Overcast
7:54 AM 60.1 °F 55.0 °F 83% 29.80 in 10.0 mi NW 16.1 mph 28.8 mph 0.00 in Rain Light Rain
8:54 AM 55.9 °F 51.1 °F 84% 29.85 in 10.0 mi NW 12.7 mph - 0.00 in Rain Light Rain
9:41 AM 53.6 °F 46.4 °F 77% 29.86 in 10.0 mi North 16.1 mph - 0.00 in   Overcast
9:49 AM 53.6 °F 46.4 °F 77% 29.87 in 10.0 mi North 15.0 mph - 0.00 in   Overcast
9:54 AM 54.0 °F 48.0 °F 80% 29.88 in 10.0 mi NNW 13.8 mph - 0.00 in   Overcast
10:54 AM 51.1 °F 44.1 °F 77% 29.91 in 10.0 mi NNW 12.7 mph 24.2 mph 0.00 in Rain Light Rain
11:54 AM 51.1 °F 45.0 °F 80% 29.94 in 10.0 mi NNW 15.0 mph - 0.02 in Rain Light Rain
12:54 PM 51.1 °F 44.1 °F 77% 29.95 in 10.0 mi NNW 13.8 mph 24.2 mph 0.01 in   Overcast
1:40 PM 53.6 °F 42.8 °F 67% 29.93 in 10.0 mi NNW 15.0 mph 25.3 mph N/A   Overcast
1:54 PM 53.1 °F 43.0 °F 69% 29.95 in 10.0 mi NNW 18.4 mph 26.5 mph N/A   Overcast
2:12 PM 53.6 °F 41.0 °F 62% 29.94 in 10.0 mi NNW 16.1 mph 23.0 mph N/A   Overcast
2:54 PM 54.0 °F 39.9 °F 59% 29.96 in 10.0 mi NNW 17.3 mph 28.8 mph N/A   Overcast
3:54 PM 54.0 °F 39.0 °F 57% 29.97 in 10.0 mi NNW 18.4 mph 31.1 mph N/A   Overcast
4:01 PM 53.6 °F 39.2 °F 58% 29.95 in 10.0 mi NNW 20.7 mph 31.1 mph N/A   Overcast
4:54 PM 53.1 °F 39.0 °F 59% 29.98 in 10.0 mi NNW 21.9 mph 32.2 mph N/A   Overcast
5:54 PM 53.1 °F 37.9 °F 57% 29.99 in 10.0 mi NNW 15.0 mph 26.5 mph N/A   Overcast
6:54 PM 51.1 °F 36.0 °F 56% 30.02 in 10.0 mi NNW 20.7 mph 34.5 mph N/A   Overcast
7:54 PM 48.9 °F 37.9 °F 66% 30.05 in 10.0 mi NW 16.1 mph 25.3 mph N/A   Overcast
8:54 PM 48.0 °F 37.9 °F 68% 30.08 in 10.0 mi NW 13.8 mph - N/A   Overcast
9:54 PM 46.9 °F 37.9 °F 71% 30.09 in 10.0 mi NW 18.4 mph 26.5 mph N/A   Overcast
10:54 PM 46.9 °F 37.9 °F 71% 30.09 in 10.0 mi NW 19.6 mph 24.2 mph N/A   Overcast
11:54 PM 46.9 °F 39.0 °F 74% 30.09 in 10.0 mi NW 15.0 mph - N/A   Overcast